This is the latest recevied weather packets stored in our database for station/object KK7RJD. If no packets are shown the sender has not sent any weather packets the latest 10 day(s).
| Time | Temp. | Humidity | Pressure | Rain* | Wind** | Luminosity | Snow |
|---|---|---|---|---|---|---|---|
| 1778012249 | 7.22° C | 43% | 1014.8 hPa | 0 mm | - | 202 W/m² | - |
| 1778011947 | 7.78° C | 43% | 1015.1 hPa | 0 mm | - | 308 W/m² | - |
| 1778011645 | 7.22° C | 41% | 1015.1 hPa | 0 mm | - | 431 W/m² | - |
| 1778011342 | 7.22° C | 41% | 1015.1 hPa | 0 mm | - | 385 W/m² | - |
| 1778011037 | 7.78° C | 43% | 1015.3 hPa | 0 mm | - | 494 W/m² | - |
| 1778010129 | 7.78° C | 44% | 1015.1 hPa | 0 mm | - | 1155 W/m² | - |
| 1778009825 | 7.78° C | 43% | 1015.1 hPa | 0 mm | - | 1156 W/m² | - |
| 1778009522 | 7.22° C | 42% | 1015.2 hPa | 0 mm | - | 845 W/m² | - |
| 1778009221 | 7.78° C | 44% | 1015.2 hPa | 0 mm | - | 290 W/m² | - |
| 1778008918 | 7.78° C | 44% | 1015.1 hPa | 0 mm | - | 446 W/m² | - |
| 1778008616 | 7.78° C | 44% | 1015.2 hPa | 0 mm | - | 464 W/m² | - |
| 1778006193 | 7.78° C | 45% | 1015.4 hPa | 0 mm | - | 1031 W/m² | - |
| 1778004374 | 7.78° C | 43% | 1015.6 hPa | 0 mm | - | 965 W/m² | - |
| 1778003161 | 7.22° C | 47% | 1015.7 hPa | 0 mm | - | 745 W/m² | - |
| 1778002553 | 7.78° C | 47% | 1015.8 hPa | 0 mm | - | 888 W/m² | - |
| 1778002250 | 7.78° C | 45% | 1015.6 hPa | 0 mm | - | 894 W/m² | - |
| 1778001948 | 7.78° C | 43% | 1015.7 hPa | 0 mm | - | 916 W/m² | - |
| 1778001644 | 7.22° C | 43% | 1015.8 hPa | 0 mm | - | 913 W/m² | - |
| 1778001339 | 7.22° C | 40% | 1015.8 hPa | 0 mm | - | 861 W/m² | - |
| 1778001036 | 7.22° C | 39% | 1015.7 hPa | 0 mm | - | 869 W/m² | - |
| 1777999517 | 7.22° C | 42% | 1016 hPa | 0 mm | - | 777 W/m² | - |
| 1777999215 | 6.11° C | 42% | 1015.9 hPa | 0 mm | - | 768 W/m² | - |
| 1777998913 | 5.56° C | 44% | 1016 hPa | 0 mm | - | 589 W/m² | - |
| 1777998609 | 5.56° C | 42% | 1016.2 hPa | 0 mm | - | 209 W/m² | - |
| 1777998303 | 5.56° C | 41% | 1016.1 hPa | 0 mm | - | 163 W/m² | - |
* Rain latest hour (hover to see other rain measurements)
** Current wind speed in m/s (hover to see current wind gust speed)